Silver City, NM

5:25 AM MST on November 18, 2017 (GMT -0700)
Grant County

Weather History for KSVC - September, 2013

Change the Weather History Date:

Monday, September 16, 2013

  Actual Average (KDMN) Record (KDMN)
Temperature  
Mean Temperature 68 °F -  
Max Temperature 75 °F 88 °F 100 °F (1956)
Min Temperature 62 °F 55 °F 45 °F (1988)
Cooling Degree Days 4    
Growing Degree Days 18 (Base 50)    
Moisture  
Dew Point 56 °F    
Average Humidity 64    
Maximum Humidity 77    
Minimum Humidity 50    
Precipitation  
Precipitation 0.00 in - - ()
Sea Level Pressure  
Sea Level Pressure 30.21 in    
Wind  
Wind Speed 10 mph (East)    
Max Wind Speed 18 mph    
Max Gust Speed 28 mph    
Visibility 10 miles    
Events Thunderstorm    
Averages and records for this station are not official NWS values.
T = Trace of Precipitation, MM = Missing Value Source: NWS Daily Summary

Daily Weather History Graph

Daily Weather History Graph

Search for Another Location

Airport or City:

Trip Planner

Search our weather history database for the weather conditions in past years. The results will help you decide how hot, cold, wet, or windy it might be!

Date:

Astronomy

Sep. 16, 2013 Rise Set
Actual Time 6:57 AM MDT 7:16 PM MDT
Civil Twilight 6:32 AM MDT 7:41 PM MDT
Nautical Twilight 6:03 AM MDT 8:10 PM MDT
Astronomical Twilight 5:34 AM MDT 8:39 PM MDT
Moon 5:22 PM MDT (9/16) 3:54 AM MDT (9/16)
Length of Visible Light 13h 09m
Length of Day
12h 19m
Waxing Gibbous, 90% of the Moon is Illuminated
Sep 16
Waxing Gibbous
Sep 19
Full
Sep 26
Last Quarter
Oct 4
New
Oct 11
First Quarter

Hourly Weather History & Observations

Time (MDT) Temp. Dew Point Humidity Pressure Visibility Wind Dir Wind Speed Gust Speed Precip Events Conditions
12:15 AM 66.2 °F 57.2 °F 73% 30.19 in 10.0 mi NE 6.9 mph - N/A   Partly Cloudy
12:35 AM 66.2 °F 57.2 °F 73% 30.18 in 10.0 mi ENE 5.8 mph - N/A   Mostly Cloudy
12:55 AM 66.2 °F 57.2 °F 73% 30.18 in 10.0 mi ENE 4.6 mph - N/A   Partly Cloudy
1:15 AM 64.4 °F 57.2 °F 77% 30.18 in 10.0 mi NNE 4.6 mph - N/A   Mostly Cloudy
1:35 AM 64.4 °F 57.2 °F 77% 30.19 in 10.0 mi Calm Calm - N/A   Mostly Cloudy
1:55 AM 66.2 °F 57.2 °F 73% 30.19 in 10.0 mi East 3.5 mph - N/A   Mostly Cloudy
2:15 AM 66.2 °F 57.2 °F 73% 30.19 in 10.0 mi Calm Calm - N/A   Mostly Cloudy
2:35 AM 66.2 °F 57.2 °F 73% 30.19 in 10.0 mi Calm Calm - N/A   Clear
2:55 AM 66.2 °F 55.4 °F 68% 30.19 in 10.0 mi East 10.4 mph - N/A   Clear
3:15 AM 66.2 °F 55.4 °F 68% 30.19 in 10.0 mi East 10.4 mph - N/A   Scattered Clouds
3:35 AM 66.2 °F 55.4 °F 68% 30.19 in 10.0 mi East 11.5 mph 16.1 mph N/A   Mostly Cloudy
3:55 AM 66.2 °F 55.4 °F 68% 30.19 in 10.0 mi East 15.0 mph 20.7 mph N/A   Scattered Clouds
4:15 AM 66.2 °F 55.4 °F 68% 30.19 in 10.0 mi East 12.7 mph - N/A Thunderstorm Scattered Clouds
4:35 AM 66.2 °F 55.4 °F 68% 30.19 in 10.0 mi East 13.8 mph - N/A Thunderstorm Mostly Cloudy
4:55 AM 66.2 °F 55.4 °F 68% 30.19 in 10.0 mi ENE 12.7 mph - N/A   Mostly Cloudy
5:15 AM 64.4 °F 55.4 °F 73% 30.20 in 10.0 mi NE 18.4 mph - N/A Thunderstorm Scattered Clouds
5:35 AM 62.6 °F 55.4 °F 77% 30.20 in 10.0 mi ENE 12.7 mph 20.7 mph N/A Thunderstorm Partly Cloudy
5:55 AM 62.6 °F 53.6 °F 72% 30.20 in 10.0 mi ENE 13.8 mph - N/A Thunderstorm Clear
6:15 AM 64.4 °F 55.4 °F 73% 30.20 in 10.0 mi ENE 15.0 mph 21.9 mph N/A   Clear
6:35 AM 64.4 °F 55.4 °F 73% 30.21 in 10.0 mi ENE 13.8 mph - N/A   Clear
6:55 AM 62.6 °F 55.4 °F 77% 30.22 in 10.0 mi ENE 12.7 mph - N/A Thunderstorm Clear
7:15 AM 62.6 °F 55.4 °F 77% 30.22 in 10.0 mi ENE 11.5 mph - N/A   Clear
7:35 AM 62.6 °F 55.4 °F 77% 30.22 in 10.0 mi ENE 15.0 mph - N/A   Clear
7:55 AM 64.4 °F 55.4 °F 73% 30.23 in 10.0 mi ENE 12.7 mph - N/A   Clear
8:15 AM 66.2 °F 55.4 °F 68% 30.23 in 10.0 mi ENE 16.1 mph - N/A   Clear
8:35 AM 68.0 °F 55.4 °F 64% 30.23 in 10.0 mi ENE 13.8 mph 19.6 mph N/A   Clear
8:55 AM 68.0 °F 55.4 °F 64% 30.23 in 10.0 mi ENE 15.0 mph 19.6 mph N/A   Clear
9:15 AM 69.8 °F 55.4 °F 60% 30.24 in 10.0 mi ENE 11.5 mph - N/A   Clear
9:35 AM 71.6 °F 55.4 °F 57% 30.24 in 10.0 mi East 11.5 mph 17.3 mph N/A   Clear
9:55 AM 73.4 °F 55.4 °F 53% 30.25 in 10.0 mi East 12.7 mph 19.6 mph N/A   Clear
10:15 AM 73.4 °F 55.4 °F 53% 30.25 in 10.0 mi ESE 15.0 mph 18.4 mph N/A   Clear
10:35 AM 73.4 °F 55.4 °F 53% 30.25 in 10.0 mi ESE 16.1 mph 23.0 mph N/A   Clear
10:55 AM 73.4 °F 55.4 °F 53% 30.25 in 10.0 mi ESE 13.8 mph 20.7 mph N/A   Partly Cloudy
11:15 AM 75.2 °F 55.4 °F 50% 30.25 in 10.0 mi SE 15.0 mph 27.6 mph N/A   Scattered Clouds
11:35 AM 73.4 °F 55.4 °F 53% 30.25 in 10.0 mi ESE 12.7 mph 19.6 mph N/A   Mostly Cloudy
11:55 AM 73.4 °F 55.4 °F 53% 30.25 in 10.0 mi ESE 16.1 mph 20.7 mph N/A   Overcast
12:15 PM 73.4 °F 55.4 °F 53% 30.25 in 10.0 mi East 16.1 mph 21.9 mph N/A   Mostly Cloudy
12:35 PM 73.4 °F 57.2 °F 57% 30.24 in 10.0 mi ESE 16.1 mph 19.6 mph N/A   Overcast
12:55 PM 75.2 °F 57.2 °F 53% 30.24 in 10.0 mi ESE 17.3 mph 23.0 mph N/A   Mostly Cloudy
1:15 PM 73.4 °F 57.2 °F 57% 30.23 in 10.0 mi SE 17.3 mph 25.3 mph N/A   Mostly Cloudy
1:35 PM 73.4 °F 55.4 °F 53% 30.23 in 10.0 mi SE 17.3 mph 26.5 mph N/A   Mostly Cloudy
1:55 PM 73.4 °F 55.4 °F 53% 30.23 in 10.0 mi ESE 13.8 mph 21.9 mph N/A   Mostly Cloudy
2:15 PM 75.2 °F 55.4 °F 50% 30.22 in 10.0 mi ESE 15.0 mph 21.9 mph N/A   Mostly Cloudy
2:35 PM 73.4 °F 57.2 °F 57% 30.21 in 10.0 mi ESE 16.1 mph 21.9 mph N/A   Scattered Clouds
2:55 PM 75.2 °F 57.2 °F 53% 30.21 in 10.0 mi ESE 15.0 mph 23.0 mph N/A   Partly Cloudy
3:15 PM 75.2 °F 57.2 °F 53% 30.20 in 10.0 mi ESE 17.3 mph 21.9 mph N/A Thunderstorm Partly Cloudy
3:35 PM 75.2 °F 57.2 °F 53% 30.19 in 10.0 mi ESE 16.1 mph 20.7 mph N/A   Partly Cloudy
3:55 PM 75.2 °F 57.2 °F 53% 30.19 in 10.0 mi ESE 9.2 mph - N/A   Scattered Clouds
4:15 PM 75.2 °F 57.2 °F 53% 30.18 in 10.0 mi ESE 12.7 mph - N/A   Scattered Clouds
4:35 PM 75.2 °F 57.2 °F 53% 30.18 in 10.0 mi East 10.4 mph 18.4 mph N/A   Scattered Clouds
4:55 PM 75.2 °F 57.2 °F 53% 30.18 in 10.0 mi East 11.5 mph - N/A   Clear
5:15 PM 73.4 °F 57.2 °F 57% 30.18 in 10.0 mi East 10.4 mph - N/A   Scattered Clouds
5:35 PM 73.4 °F 55.4 °F 53% 30.18 in 10.0 mi East 11.5 mph - N/A   Partly Cloudy
5:55 PM 73.4 °F 57.2 °F 57% 30.18 in 10.0 mi East 10.4 mph - N/A   Mostly Cloudy
6:15 PM 71.6 °F 57.2 °F 60% 30.18 in 10.0 mi ESE 9.2 mph - N/A   Scattered Clouds
6:35 PM 71.6 °F 57.2 °F 60% 30.17 in 10.0 mi East 11.5 mph - N/A   Clear
6:55 PM 71.6 °F 57.2 °F 60% 30.17 in 10.0 mi East 8.1 mph - N/A   Clear
7:15 PM 69.8 °F 57.2 °F 64% 30.17 in 10.0 mi East 10.4 mph - N/A   Clear
7:35 PM 68.0 °F 57.2 °F 68% 30.18 in 10.0 mi East 6.9 mph - N/A   Clear
7:55 PM 68.0 °F 57.2 °F 68% 30.18 in 10.0 mi East 8.1 mph - N/A   Clear
8:15 PM 68.0 °F 57.2 °F 68% 30.19 in 10.0 mi East 6.9 mph - N/A   Clear
8:35 PM 66.2 °F 57.2 °F 73% 30.20 in 10.0 mi ENE 6.9 mph - N/A   Clear
8:55 PM 66.2 °F 57.2 °F 73% 30.20 in 10.0 mi ENE 9.2 mph - N/A   Clear
9:15 PM 66.2 °F 57.2 °F 73% 30.21 in 10.0 mi ENE 8.1 mph - N/A   Clear
9:35 PM 66.2 °F 57.2 °F 73% 30.21 in 10.0 mi ENE 6.9 mph - N/A   Partly Cloudy
9:55 PM 66.2 °F 57.2 °F 73% 30.22 in 10.0 mi ENE 6.9 mph - N/A   Partly Cloudy
10:15 PM 66.2 °F 57.2 °F 73% 30.22 in 10.0 mi East 10.4 mph - N/A   Partly Cloudy
10:35 PM 68.0 °F 57.2 °F 68% 30.22 in 10.0 mi East 10.4 mph - N/A   Scattered Clouds
10:55 PM 66.2 °F 57.2 °F 73% 30.22 in 10.0 mi East 8.1 mph - N/A   Partly Cloudy
11:15 PM 66.2 °F 57.2 °F 73% 30.22 in 10.0 mi ENE 8.1 mph - N/A   Scattered Clouds
11:35 PM 66.2 °F 57.2 °F 73% 30.22 in 10.0 mi ENE 8.1 mph - N/A   Scattered Clouds
11:55 PM 66.2 °F 57.2 °F 73% 30.22 in 10.0 mi ENE 5.8 mph - N/A   Mostly Cloudy